Location: Bailleul
(50.3375°N, 2.8513°E)
Time: 11:09:36
(UTC+00:00)

Cosmos 2228 - Pass Details

Date: 16 June 2021
Orbit: 588 x 618 km, 82.5° (Epoch: 28 July)

Event Time Altitude Azimuth Distance (km) Brightness Sun altitude
Rises 22:52:18 0° 345° (NNW) 2,905 8.4 -15.2°
Reaches altitude 10° 22:54:35 10° 341° (NNW) 1,995 7.0 -15.3°
Maximum altitude 22:58:52 52° 266° (W) 774 3.6 -15.4°
Enters shadow 23:01:21 23° 199° (SSW) 1,315 4.2 -15.5°
